Location: Karcze
(52.0945°N, 22.4786°E)
Time: 23:16:57
(UTC+00:00)

A-11 Canister half - Pass Details

Date: 05 August 2021
Orbit: 1515 x 1685 km, 47.2° (Epoch: 19 September)

Event Time Altitude Azimuth Distance (km) Brightness Sun altitude
Rises 13:18:17 0° 202° (SSW) 4,734 12.2 42.5°
Reaches altitude 10° 13:21:50 10° 192° (SSW) 3,778 11.7 42.0°
Maximum altitude 13:29:37 29° 137° (SE) 2,643 10.4 41.0°
Drops below altitude 10° 13:37:38 10° 83° (E) 3,899 10.8 39.9°
Sets 13:41:20 0° 73° (ENE) 4,910 11.2 39.4°
